OBJECT E, 61231

Orbit data source: Space-Track

You're viewing an Uncataloged Satellite

Recently launched and/or uncataloged satellites may have evolving metadata. Metadata may include but not limited to: Owner, Maufacturer, Bus, Motor, and Mission.

OBJECT E, 61231 is a Chinese satellite in SSO that was launched on Tue, 24 Sep 2024 UTC via a JIELONG-3 launch vehicle from the Yellow Sea Launch Area, China (YSLA). Unknown objects in Earth's orbit typically refer to objects detected orbiting the Earth but have not yet been identified or cataloged. These objects could be anything from previously untracked satellites, spent rocket stages, debris from satellite collisions, or even natural meteoroids temporarily captured by Earth's gravity.

Loading next visibility...
Identifier
61231, 2024-173E
Orbit
SSO
Country
Flag of CNCN / PRC
Related business
None
Manufacturer
Unknown
Mission
Operational Commercial Imaging
Bus & Motor
Unknown
Mass
Unknown
Launch date (UTC)
2024-09-24 (1 year ago)
Launch vehicle
JIELONG-3
Launch site
Yellow Sea Launch Area, China (YSLA)
Object type
Unknown
Shape & HBR
Box + 3 Pan, 0.1 m
Radar Cross Section
0.135 m², Large (>1 m²)

Expand to show TLE details & history
Last TLE update: 4 hours ago

TLE from 4 hours ago
0 OBJECT E
1 61231U 24173E   25295.64368492 -.00000020  00000-0  22062-5 0  9995
2 61231  97.4104   7.2738 0001368  94.5878 265.5513 15.19160381 59697
Epoch: 2025-10-22T15:26Z
TLE epoch observation values (Epoch: 2025-10-22T15:26:54.377Z)
Latitude
0.00001°
Longitude
104.23289°
Altitude
511.539 km
Speed
7.608 km/s
True Right ascension
00h 29m 05s
True Declination
0° 00' 00"
Sunlit
Object was in full shadow at epoch
Visualization orbit readout
Latitude
Unknown
Longitude
Unknown
Altitude
Unknown
Speed
Unknown
Apparent Right ascension
Unknown
Apparent Declination
Unknown
Sunlit
N/A
Visualization observer readout
Local Sidereal Time
14:02:15
Azimuth
Unknown
Elevation
Unknown
Doppler factor
Unknown
Orbital elements
Apogee altitude
506.286 km
Perigee altitude
504.402 km
Semi-major axis
6,883.481 km
Eccentricity
0.00014
Inclination
97.4104°
RAAN
7.2738°
Arg. of periapsis
94.5878°
True anomaly
265.53567°
Mean anomaly
265.5513°
Eccentric anomaly
265.54349°
Mean motion
3.80041 °/min
Orbital period
94.73 mins
BSTAR
0.0000022062
Loading maneuver chart data...
Computing Atmospheric mass density...
Loading historical data...
Loading historical data...
Loading historical data...
Loading historical data...
Loading historical data...
Loading historical data...
Loading historical data...

Documentation

Showing up to 5 results
|